Content
SEND FEEDBACK

Daily
Averages
Monthly
Summary
Greece

MITILINI, GREECE


Home > Europe > Greece
Elevation: 16 feet     Latitude: 39 04N     Longitude: 026 36E

WEATHER
 
SELECT A DAY
Number of Records: 93,070;   Date Range: 7/9/96 - 10/20/14
 
SHARE

PRINT THIS DATA

[ ← Previous Day ]
WEATHER ALMANAC - JULY 18, 2013
[ Next Day → ]
[ °C ]   °F
Weather ElementAverageHighLow
Temperature77.2 °F82.4 °F (1:50 pm)73 °F (3:00 am)
Dewpoint63.3 °F65 °F (9:00 am)60.8 °F (9:50 pm)
Humidity61.9 %73 % (5:50 am)45 % (3:00 pm)
Barometer29.92 in29.95 in (8:50 pm)29.89 in (4:50 am)
Wind Speed11.5 mph16.1 mph (8:20 am)
Weather ElementAverage
Visibility6.9 mi
Wind DirectionNNW (332.3 °)

Weather ElementTotal
Precipitation---
Cooling Degree Days12.7 (Base 65)
Growing Degree Days27.7 (Base 50)
Averaged from 47 records on July 18, 2013
WEATHER CONDITIONS BREAKOUT
WIND DIRECTION BREAKOUT
WEATHER BY HOUR - JULY 18, 2013
[ °C ]   °F
Local TimeTemperatureDewpointHumidityBarometerVisibilityWind DirectionWind SpeedGust SpeedPrecipitationEventsConditions
1:50 AM73.4 °F62.6 °F69 %29.92 inNW (310°)8.1 mphClear
2:50 AM73.4 °F62.6 °F69 %29.92 inWNW (300°)9.2 mphClear
3:00 AM73.0 °F62.0 °F59 %29.93 in12.0 miWNW (300°)9.2 mph
3:50 AM73.4 °F62.6 °F69 %29.92 inNW (320°)6.9 mphClear
4:20 AM73.4 °F62.6 °F69 %29.92 inNW (310°)8.1 mphClear
4:50 AM73.4 °F62.6 °F69 %29.89 inNW (310°)6.9 mphClear
5:20 AM73.4 °F62.6 °F69 %29.89 inNW (310°)6.9 mphClear
5:50 AM73.4 °F64.4 °F73 %29.92 inNW (320°)6.9 mphClear
6:20 AM73.4 °F64.4 °F73 %29.92 in6.2 miNNW (330°)8.1 mphPartly Cloudy
6:50 AM73.4 °F64.4 °F73 %29.92 in6.2 miWNW (300°)4.6 mphPartly Cloudy
7:20 AM73.4 °F64.4 °F73 %29.92 inNW (320°)9.2 mphClear
7:50 AM75.2 °F64.4 °F69 %29.92 inNNW (330°)12.7 mphClear
8:20 AM75.2 °F64.4 °F69 %29.92 inNNW (340°)16.1 mphClear
8:50 AM75.2 °F64.4 °F69 %29.92 inNNW (340°)15.0 mphClear
9:00 AM75.0 °F65.0 °F63 %29.93 in9.0 miNNW (340°)15.0 mph
9:20 AM75.2 °F64.4 °F69 %29.92 inNNW (340°)15.0 mphClear
9:50 AM77.0 °F64.4 °F65 %29.92 inNNW (340°)13.8 mphClear
10:20 AM77.0 °F64.4 °F65 %29.92 inNNW (340°)13.8 mphClear
10:50 AM77.0 °F64.4 °F65 %29.92 in6.2 miNNW (340°)15.0 mphPartly Cloudy
11:20 AM78.8 °F64.4 °F61 %29.92 in6.2 miNNW (340°)13.8 mphPartly Cloudy
11:50 AM78.8 °F64.4 °F61 %29.92 in6.2 miNNW (340°)13.8 mphPartly Cloudy
12:20 PM80.6 °F64.4 °F58 %29.92 in6.2 miNorth (350°)12.7 mphPartly Cloudy
12:50 PM80.6 °F62.6 °F54 %29.92 in6.2 miNNW (340°)12.7 mphPartly Cloudy
1:20 PM80.6 °F64.4 °F58 %29.92 in6.2 miNNW (330°)12.7 mphPartly Cloudy
1:50 PM82.4 °F64.4 °F54 %29.92 in6.2 miNNW (340°)13.8 mphPartly Cloudy
2:20 PM82.4 °F62.6 °F51 %29.92 in6.2 miNNW (330°)11.5 mphPartly Cloudy
2:50 PM82.4 °F64.4 °F54 %29.92 in6.2 miNNW (340°)12.7 mphPartly Cloudy
3:00 PM82.0 °F64.0 °F45 %29.93 in12.0 miNNW (340°)12.7 mphScattered Clouds
3:20 PM82.4 °F62.6 °F51 %29.92 in6.2 miNNW (340°)12.7 mphPartly Cloudy
3:50 PM80.6 °F62.6 °F54 %29.89 in6.2 miNNW (340°)11.5 mphPartly Cloudy
4:20 PM80.6 °F62.6 °F54 %29.89 in6.2 miNNW (340°)10.4 mphPartly Cloudy
4:50 PM82.4 °F64.4 °F54 %29.89 in6.2 miNNW (340°)11.5 mphPartly Cloudy
5:20 PM82.4 °F64.4 °F54 %29.89 in6.2 miNorth (350°)13.8 mphPartly Cloudy
5:50 PM80.6 °F62.6 °F54 %29.89 in6.2 miNorth (350°)15.0 mphPartly Cloudy
6:20 PM80.6 °F62.6 °F54 %29.89 in6.2 miNorth (350°)15.0 mphPartly Cloudy
6:50 PM78.8 °F62.6 °F57 %29.89 in6.2 miNorth (350°)13.8 mphPartly Cloudy
7:20 PM78.8 °F62.6 °F57 %29.89 in6.2 miNorth (350°)13.8 mphPartly Cloudy
7:50 PM78.8 °F62.6 °F57 %29.92 in6.2 miNNW (340°)11.5 mphPartly Cloudy
8:20 PM77.0 °F62.6 °F61 %29.92 in6.2 miNNW (340°)11.5 mphPartly Cloudy
8:50 PM77.0 °F62.6 °F61 %29.95 in6.2 miNNW (340°)12.7 mphPartly Cloudy
9:00 PM77.0 °F62.0 °F50 %29.95 in12.0 miNNW (340°)12.7 mphScattered Clouds
9:20 PM75.2 °F62.6 °F65 %29.95 inNorth (350°)11.5 mphClear
9:50 PM75.2 °F60.8 °F61 %29.95 inNorth (350°)12.7 mphClear
10:20 PM75.2 °F62.6 °F65 %29.95 inNNW (340°)11.5 mphClear
10:50 PM75.2 °F62.6 °F65 %29.95 inNW (320°)8.1 mphClear
11:20 PM73.4 °F62.6 °F69 %29.95 inWNW (300°)6.9 mphClear
11:50 PM73.4 °F62.6 °F69 %29.95 inWNW (300°)8.1 mphClear
Hourly data recorded from LGMT, located miles away from Mitilini, Greece







STORIES FROM OUR PARTNERS